TimePDT,TemperatureF,Dew PointF,Humidity,Sea Level PressureIn,VisibilityMPH,Wind Direction,Wind SpeedMPH,Gust SpeedMPH,PrecipitationIn,Events,Conditions,WindDirDegrees,DateUTC
12:56 AM,53.1,43.0,69,29.92,10.0,Calm,Calm,-,N/A,,Clear,0,2013-09-16 07:56:00
1:56 AM,53.1,43.0,69,29.93,10.0,Calm,Calm,-,N/A,,Partly Cloudy,0,2013-09-16 08:56:00
2:56 AM,55.9,44.1,64,29.93,10.0,Calm,Calm,-,N/A,,Mostly Cloudy,0,2013-09-16 09:56:00
3:56 AM,54.0,45.0,72,29.94,10.0,Calm,Calm,-,N/A,,Overcast,0,2013-09-16 10:56:00
4:56 AM,50.0,43.0,77,29.95,10.0,Calm,Calm,-,N/A,,Clear,0,2013-09-16 11:56:00
5:56 AM,48.9,43.0,80,29.96,10.0,ENE,3.5,-,N/A,,Clear,60,2013-09-16 12:56:00
6:56 AM,46.9,42.1,83,29.99,10.0,Calm,Calm,-,N/A,,Clear,0,2013-09-16 13:56:00
7:56 AM,51.1,44.1,77,29.99,10.0,Calm,Calm,-,N/A,,Clear,0,2013-09-16 14:56:00
8:56 AM,60.1,46.9,62,29.99,10.0,Variable,3.5,-,N/A,,Clear,0,2013-09-16 15:56:00
9:56 AM,66.0,48.0,52,29.98,10.0,Calm,Calm,-,N/A,,Clear,0,2013-09-16 16:56:00
10:56 AM,68.0,46.9,47,29.97,10.0,Calm,Calm,-,N/A,,Clear,0,2013-09-16 17:56:00
11:56 AM,73.0,46.9,39,29.95,10.0,Variable,3.5,-,N/A,,Clear,0,2013-09-16 18:56:00
12:56 PM,77.0,45.0,32,29.93,10.0,Calm,Calm,-,N/A,,Clear,0,2013-09-16 19:56:00
1:56 PM,78.1,46.0,32,29.90,10.0,Calm,Calm,-,N/A,,Clear,0,2013-09-16 20:56:00
2:56 PM,77.0,43.0,30,29.87,10.0,Calm,Calm,-,N/A,,Clear,0,2013-09-16 21:56:00
3:56 PM,79.0,44.1,29,29.85,10.0,Calm,Calm,-,N/A,,Clear,0,2013-09-16 22:56:00
4:56 PM,73.9,45.0,35,29.86,10.0,Calm,Calm,-,N/A,,Clear,0,2013-09-16 23:56:00
5:56 PM,72.0,46.9,41,29.85,10.0,Calm,Calm,-,N/A,,Overcast,0,2013-09-17 00:56:00
6:56 PM,69.1,46.9,45,29.86,10.0,Calm,Calm,-,N/A,,Clear,0,2013-09-17 01:56:00
7:56 PM,66.0,45.0,47,29.85,10.0,Calm,Calm,-,N/A,,Partly Cloudy,0,2013-09-17 02:56:00
8:56 PM,64.9,44.1,47,29.86,10.0,Calm,Calm,-,N/A,,Overcast,0,2013-09-17 03:56:00
9:56 PM,64.0,43.0,46,29.85,10.0,Calm,Calm,-,N/A,,Clear,0,2013-09-17 04:56:00
10:56 PM,62.1,43.0,50,29.85,10.0,Calm,Calm,-,N/A,,Clear,0,2013-09-17 05:56:00
11:56 PM,57.0,44.1,62,29.84,10.0,Calm,Calm,-,N/A,,Clear,0,2013-09-17 06:56:00